User: anonymous   Login
Location: Newark
(34.9471°N, 136.1778°E)
Time: 13:55:33
(UTC+00:00)
Language:

CUTE 1.7 + AOD 2 - Orbit

View from above orbital plane
View from above orbital plane
View from above satellite
View from above satellite

Ground track
Ground track

The orbit data is extracted from the following two-line orbital elements,

1 32785U 08021C   20048.72895336 +.00000165 +00000-0 +23402-4 0  9990
2 32785 097.5647 042.1171 0013280 167.2716 192.8839 14.88417973639915
Epoch (UTC): 17 February 2020 17:29:41
Eccentricity: 0.0013280
inclination: 97.5647°
perigee height: 593 km
apogee height: 612 km
right ascension of ascending node: 42.1171°
argument of perigee: 167.2716°
revolutions per day: 14.88417973
mean anomaly at epoch: 192.8839°
orbit number at epoch: 63991

The dashed part of the orbit path shows where the satellite is in the earth's shadow,  

DLR